#timestamp,LO_Frequency,Hit,StdDev 
1546560015.3,286047001.2,N
1546560035.2,286046999.2,N
1546560055.0,286046999.1,N
1546560055.9,286046999.1,N
1546560075.7,286046997.8,N
1546560095.6,286046998.9,N
1546560115.4,286046999.3,N
1546560135.3,286046998.5,N
1546560155.1,286046999.9,N
1546560156.0,286046999.9,N
1546560175.8,286046999.7,N
1546560195.7,286047001.4,N
1546560215.5,286047002.4,N
1546560235.3,286047004.2,N
1546560255.2,286047002.3,N
1546560275.0,286047000.9,N
1546560275.9,286047000.9,N
1546560295.8,286046998.9,N
1546560315.6,286046998.7,N
1546560335.4,286046998.1,N
1546560355.3,286047000.4,N
1546560375.1,286047002.4,N
1546560395.8,286047001.6,N
1546560415.7,286047000.6,N
1546560435.5,286046998.4,N
1546560455.4,286047002.0,N
1546560475.2,286047002.7,N
1546560495.0,286047000.9,N
1546560495.9,286047000.9,N
1546560515.8,286047003.2,N
1546560535.6,286047002.3,N
1546560555.4,286047000.9,N
1546560575.3,286046999.1,N
1546560595.1,286046998.9,N
1546560615.9,286046998.4,N
1546560635.7,286046999.3,N
1546560655.5,286046999.5,N
1546560675.4,286046998.7,N
1546560695.2,286046999.4,N
1546560715.0,286046997.5,N
1546560716.0,286046997.5,N
1546560735.8,286046999.2,N
1546560755.6,286046996.6,N
1546560775.5,286046997.2,N
1546560795.3,286046998.7,N
1546560815.1,286046999.4,N
1546560835.9,286047002.8,N
1546560855.7,286047001.0,N
1546560875.6,286046998.5,N
1546560895.4,286046999.5,N
1546560915.2,286046999.6,N
1546560935.1,286046997.1,N
1546560936.0,286046997.1,N
1546560955.8,286046995.1,N
1546560975.7,286046999.6,N
1546560995.5,286046998.3,N
1546561015.3,286046998.7,N
1546561035.2,286047001.2,N
1546561055.0,286046998.7,N
1546561055.9,286046998.7,N
1546561075.7,286047002.1,N
1546561095.6,286047002.2,N
1546561115.4,286046998.8,N
1546561135.3,286046998.4,N
1546561155.1,286046998.4,N
1546561175.8,286046998.4,N
1546561195.7,286047001.0,N
1546561215.5,286047000.1,N
1546561235.4,286047000.3,N
1546561255.2,286047001.2,N
1546561275.0,286046999.4,N
1546561275.9,286046999.4,N
1546561295.8,286046998.6,N
1546561315.6,286047000.9,N
1546561335.4,286046998.9,N
1546561355.3,286046998.4,N
1546561375.1,286047000.8,N
1546561395.9,286046998.3,N
1546561415.7,286047000.0,N
1546561435.5,286047000.5,N
1546561455.4,286047002.2,N
1546561475.2,286047000.1,N
1546561495.1,286046999.0,N
1546561496.0,286046999.0,N
1546561515.8,286046999.1,N
1546561535.6,286046999.0,N
1546561555.5,286046998.6,N
1546561575.3,286046998.1,N
1546561595.1,286047000.4,N
1546561615.9,286047002.6,N
1546561665.8,286047003.0,E
1546561675.7,286047003.7,N
1546561695.5,286046999.7,P
1546561715.3,286047001.2,N
1546561735.2,286046999.5,N
1546561755.0,286046995.9,N
1546561755.9,286046995.9,N
1546561775.8,286046993.8,N
1546561795.6,286046996.3,N
1546561815.4,286046996.9,N
1546561835.3,286047001.1,N
1546561855.1,286046997.7,N
1546561875.9,286046997.0,N
1546561895.7,286046996.9,N
1546561915.5,286046995.7,N
1546561935.4,286046995.4,N
1546561955.2,286046996.1,N
1546561975.0,286046995.3,N
1546561975.9,286046995.3,N
1546561995.8,286046996.2,N
1546562015.6,286046998.6,N
1546562035.5,286046998.6,N
1546562055.3,286046999.1,N
1546562075.1,286046997.0,N
1546562095.9,286047000.5,N
1546562115.7,286047002.3,N
1546562135.5,286047000.2,N
1546562155.4,286046998.4,N
1546562175.2,286046998.0,N
1546562195.1,286046995.8,N
1546562196.0,286046995.8,N
1546562215.8,286046997.9,N
1546562235.6,286046995.2,N
1546562255.5,286046995.9,N
1546562275.3,286046995.6,N
1546562295.1,286046995.0,N
1546562315.9,286046997.3,N
1546562335.7,286046996.5,N
1546562355.6,286046995.4,N
1546562375.4,286046997.2,N
1546562395.2,286047001.1,N
1546562415.1,286047011.9,Y
1546562416.0,286047000.2,P
1546562435.8,286047004.3,N
1546562455.7,286047000.0,N
1546562475.5,286047003.5,N
1546562495.3,286047001.6,N
1546562515.2,286047001.6,N
1546562535.9,286047002.1,N
1546562555.7,286047000.2,N
1546562575.6,286046998.1,N
1546562595.4,286046998.1,N
1546562615.2,286047003.2,N
1546562635.1,286047002.1,N
1546562636.0,286047002.1,N
1546562655.8,286047002.1,N
1546562675.7,286047001.9,N
1546562695.5,286047000.0,N
1546562715.3,286047000.9,N
1546562735.2,286047000.6,N
1546562755.0,286047002.5,N
1546562755.9,286047002.5,N
1546562775.7,286047001.3,N
1546562795.6,286047003.5,N
1546562815.4,286047001.4,N
1546562835.3,286047004.3,N
1546562855.1,286047000.0,N
1546562856.0,286047000.0,N
1546562875.8,286046999.7,N
1546562895.7,286047001.8,N
1546562915.5,286047003.9,N
1546562935.3,286047000.1,N
1546562955.2,286047000.5,N
1546562975.0,286046998.5,N
1546562975.9,286046998.5,N
1546562995.8,286046999.4,N
1546563015.6,286047001.5,N
1546563035.4,286047001.7,N
1546563055.3,286047004.2,N
1546563075.1,286047003.7,N
1546563095.8,286047001.7,N
1546563115.7,286047006.4,Y
1546563135.5,286047003.8,P
1546563155.4,286046999.8,N
1546563175.2,286047000.8,N
1546563195.0,286047000.0,N
1546563195.9,286047000.0,N
1546563215.8,286046999.2,N
1546563235.6,286046999.2,N
1546563255.4,286046996.6,N
1546563275.3,286046996.7,N
1546563295.1,286046998.8,N
1546563315.9,286047000.9,N
1546563335.7,286047002.8,N
1546563355.5,286047002.8,N
1546563375.4,286047002.4,N
1546563395.2,286046998.2,N
1546563415.0,286047000.1,N
1546563415.9,286047000.1,N
1546563435.8,286047001.0,N
1546563455.6,286047001.4,N
1546563475.5,286047002.7,N
1546563495.3,286047000.4,N
1546563515.1,286047000.1,N
1546563535.9,286047003.2,N
1546563555.7,286047005.2,N
1546563575.6,286047004.1,N
1546563595.4,286047003.4,N
